Weather History for York, PA

Change the Weather History Date:

Wednesday, February 13, 2013

  Actual Average Record
Temperature  
Mean Temperature 30 °F -  
Max Temperature 41 °F 0 °F 52 °F (2001)
Min Temperature 19 °F - 3 °F (2006)
Degree Days  
Heating Degree Days 35    
Moisture  
Dew Point 27 °F    
Average Humidity 84    
Maximum Humidity 96    
Minimum Humidity 53    
Precipitation  
Precipitation 0.14 in - - ()
Sea Level Pressure  
Sea Level Pressure 29.79 in    
Wind  
Wind Speed 2 mph (North)    
Max Wind Speed 7 mph    
Max Gust Speed -    
Visibility 4 miles    
Events Fog , Snow    
Averages and records for this station are not official NWS values.
T = Trace of Precipitation, MM = Missing Value Source: NWS Daily Summary

Daily Weather History Graph

Daily Weather History Graph

Search for Another Location

Airport:

Trip Planner

Search our weather history database for the weather conditions in past years. The results will help you decide how hot, cold, wet, or windy it might be!

Date:

Astronomy

Feb. 13, 2013 Rise Set
Actual Time 7:02 AM EST 5:41 PM EST
Civil Twilight 6:34 AM EST 6:09 PM EST
Nautical Twilight 6:02 AM EST 6:41 PM EST
Astronomical Twilight 5:31 AM EST 7:12 PM EST
Moon 8:30 AM EST (2/13) 9:41 PM EST (2/13)
Length of Visible Light 11h 34m
Length of Day
10h 39m
Waxing Crescent, 13% of the Moon is Illuminated
Feb 13
Waxing Crescent
Feb 17
First Quarter
Feb 25
Full
Mar 4
Last Quarter
Mar 11
New

Hourly Weather History & Observations

Time (EST) Temp. Windchill Dew Point Humidity Pressure Visibility Wind Dir Wind Speed Gust Speed Precip Events Conditions
12:53 AM 25.0 °F - 21.9 °F 88% 29.98 in 8.0 mi Calm Calm - N/A   Clear
1:53 AM 24.1 °F - 19.9 °F 84% 29.97 in 7.0 mi Calm Calm - N/A   Clear
2:53 AM 23.0 °F - 19.9 °F 88% 29.94 in 5.0 mi Calm Calm - N/A   Clear
3:53 AM 21.0 °F - 18.0 °F 88% 29.93 in 5.0 mi Calm Calm - N/A   Clear
4:53 AM 21.9 °F - 19.0 °F 89% 29.92 in 5.0 mi Calm Calm - N/A   Clear
5:53 AM 19.9 °F - 18.0 °F 92% 29.92 in 5.0 mi Calm Calm - N/A   Clear
6:53 AM 21.0 °F - 18.0 °F 88% 29.91 in 5.0 mi Calm Calm - N/A   Clear
7:53 AM 25.0 °F - 21.9 °F 88% 29.90 in 4.0 mi Calm Calm - N/A   Clear
8:53 AM 30.0 °F - 26.1 °F 85% 29.89 in 3.0 mi Calm Calm - N/A   Mostly Cloudy
9:53 AM 35.1 °F - 27.0 °F 72% 29.90 in 7.0 mi Calm Calm - N/A   Overcast
10:53 AM 37.0 °F 33.3 °F 26.1 °F 65% 29.87 in 8.0 mi NE 4.6 mph - N/A   Overcast
11:53 AM 39.9 °F 37.8 °F 26.1 °F 58% 29.83 in 10.0 mi Variable 3.5 mph - N/A   Overcast
12:53 PM 41.0 °F 37.1 °F 25.0 °F 53% 29.79 in 10.0 mi NE 5.8 mph - N/A   Mostly Cloudy
1:53 PM 41.0 °F - 26.1 °F 55% 29.77 in 10.0 mi Calm Calm - N/A   Overcast
2:53 PM 41.0 °F 36.4 °F 27.0 °F 57% 29.73 in 10.0 mi NE 6.9 mph - N/A   Overcast
3:53 PM 39.0 °F 34.0 °F 27.0 °F 62% 29.70 in 10.0 mi NNE 6.9 mph - 0.00 in   Overcast
4:53 PM 37.9 °F 32.7 °F 27.0 °F 65% 29.71 in 9.0 mi NNE 6.9 mph - 0.00 in   Overcast
5:53 PM 37.0 °F 34.5 °F 28.0 °F 70% 29.71 in 7.0 mi NNE 3.5 mph - 0.00 in   Overcast
6:11 PM 35.6 °F 31.7 °F 28.4 °F 75% 29.69 in 3.0 mi North 4.6 mph - 0.00 in Snow Light Snow
6:21 PM 33.8 °F 28.6 °F 30.2 °F 87% 29.69 in 2.5 mi North 5.8 mph - 0.00 in Snow Light Snow
6:30 PM 33.8 °F 30.8 °F 30.2 °F 87% 29.70 in 1.8 mi NNW 3.5 mph - 0.01 in Snow Light Snow
6:53 PM 33.1 °F 30.0 °F 30.9 °F 92% 29.72 in 1.5 mi NE 3.5 mph - 0.02 in Snow Light Snow
7:22 PM 33.8 °F - 30.2 °F 87% 29.71 in 1.2 mi Calm Calm - 0.02 in Snow Light Snow
7:31 PM 33.8 °F - 30.2 °F 87% 29.71 in 1.0 mi Calm Calm - 0.03 in Snow Light Snow
7:38 PM 32.0 °F - 30.2 °F 93% 29.71 in 0.8 mi Calm Calm - 0.04 in Snow Light Snow
7:50 PM 32.0 °F - 30.2 °F 93% 29.71 in 0.5 mi Calm Calm - 0.05 in Fog , Snow Snow
7:53 PM 32.0 °F - 30.9 °F 96% 29.73 in 0.5 mi Calm Calm - 0.05 in Fog , Snow Snow
8:00 PM 32.0 °F - 30.2 °F 93% 29.71 in 0.5 mi Calm Calm - 0.01 in Fog , Snow Snow
8:53 PM 32.0 °F - 30.9 °F 96% 29.73 in 0.8 mi Calm Calm - 0.04 in Snow Light Snow
9:11 PM 32.0 °F - 30.2 °F 93% 29.71 in 1.0 mi Calm Calm - 0.00 in Snow Light Snow
9:50 PM 32.0 °F 26.4 °F 30.2 °F 93% 29.73 in 1.2 mi NW 5.8 mph - 0.01 in Snow Light Snow
9:53 PM 32.0 °F 27.5 °F 30.9 °F 96% 29.75 in 1.2 mi NW 4.6 mph - 0.01 in Snow Light Snow
10:08 PM 32.0 °F 28.7 °F 30.2 °F 93% 29.74 in 1.0 mi WNW 3.5 mph - 0.01 in Snow Light Snow
10:18 PM 32.0 °F - 30.2 °F 93% 29.74 in 1.0 mi Calm Calm - 0.01 in Snow Light Snow
10:53 PM 32.0 °F - 30.9 °F 96% 29.75 in 1.2 mi Calm Calm - 0.02 in Snow Light Snow
11:24 PM 32.0 °F 28.7 °F 30.2 °F 93% 29.75 in 1.8 mi West 3.5 mph - 0.00 in Snow Light Snow
11:32 PM 32.0 °F 28.7 °F 30.2 °F 93% 29.75 in 1.5 mi West 3.5 mph - 0.00 in Snow Light Snow
11:53 PM 32.0 °F 27.5 °F 30.9 °F 96% 29.77 in 1.5 mi WNW 4.6 mph - 0.00 in   Overcast